Zurück zum Katalog

NIMBUS 2 DEB

AktivSSO
NORAD 59975·DEBRIS·🇺🇸 United States

Gestartet May 15, 1966 von Vandenberg Space Force Base

Loading…

Nächste Überflüge (nächste 24 Stunden)

TLE

AktuellSource: Space-Track

Epoche: Sep 13, 2026, 17:32 UTC

1 59975U 66040CE  26256.73080014  .00001734  00000-0  29968-2 0  9996
2 59975 100.1510  57.5365 0040404 303.2050  56.5209 13.45330658342241

Verfolge NIMBUS 2 DEB in Echtzeit mit AllMySat

Download on the App Store